Regional Weather Roundup
Issued by NWS

Home | Current Version | Previous Version | Text Only | Print | Product List | Glossary Off
Versions: 1 2 3 4 5 6 7 8 9 10 11 12 13 14 15 16 17 18 19 20 21 22 23 24 25 26 27 28 29 30 31 32 33 34 35 36 37 38 39 40 41 42 43 44 45 46 47 48 49 50

000
ASUS43 KMPX 290301
RWRMN
WEATHER ROUNDUP FOR MINNESOTA
NATIONAL WEATHER SERVICE TWIN CITIES/CHANHASSEN MN
1000 PM CDT SUN AUG 28 2016


NOTE: "FAIR" INDICATES FEW OR NO CLOUDS BELOW 12,000 FEET WITH NO
SIGNIFICANT WEATHER AND/OR OBSTRUCTIONS TO VISIBILITY. N/A MEANS
CURRENT SKY AND/OR WEATHER CONDITIONS ARE NOT AVAILABLE.

MNZ060>063-068>070-290400-
   Twin Cities Metro

CITY           SKY/WX    TMP DP  RH WIND       PRES   REMARKS
TWIN CITIES    CLEAR     75  67  76 SE8       30.12R
ST PAUL        CLEAR     73  68  84 SE7       30.12R
CRYSTAL        CLEAR     76  65  68 SE8       30.10R
BLAINE         CLEAR     75  70  83 SE6       30.11S
LAKEVILLE      CLEAR     70  70 100 CALM      30.13R
EDEN PRAIRIE   CLEAR     75  68  78 SE7       30.11R
LAKEVILLE      CLEAR     70  70 100 CALM      30.13R
SOUTH ST PAUL  CLEAR     74  68  81 SE5       30.12S
LAKE ELMO      FAIR      72  70  94 SE7       30.13F
$$
MNZ001>005-007-008-013>017-022>024-027-028-290400-
   Northwest Minnesota

CITY           SKY/WX    TMP DP  RH WIND       PRES   REMARKS
BEMIDJI        CLOUDY    72  68  88 SE12      30.06R
HALLOCK        MOCLDY    72  66  83 E15G21    29.96S
ROSEAU         CLEAR     70  64  83 SE15      30.01R
WARROAD        CLOUDY    68  64  88 SE9       30.02S
THIEF RVR FALL CLOUDY    73  68  84 E15       29.98R
CROOKSTON      CLOUDY    72  64  78 SE18      29.96R
FOSSTON        CLOUDY    72  70  94 S15       30.02R
DETROIT LAKES  CLOUDY    77  70  78 S13G18    30.03S
MOORHEAD       CLOUDY    79  73  83 SE14G20   29.96R
PARK RAPIDS    CLOUDY    76  70  82 SE8       30.07R
MAHNOMEN       FAIR      76  71  83 SE12      29.99S
$$
MNZ006-009>011-018-025>026-290400-
   North Central Minnesota

CITY           SKY/WX    TMP DP  RH WIND       PRES   REMARKS
BAUDETTE       CLOUDY    62  59  90 SE14      30.04F
FLAG ISLAND    CLOUDY    66  63  88 SE6       30.02F
INTL FALLS     TSTM      66  64  93 NW7       30.13R FOG
WASKISH        CLOUDY    70  64  83 NE15G23   30.05F THUNDER
BIG FORK       CLOUDY    70  64  83 CALM      30.12R
LONGVILLE      CLOUDY    72  68  88 SE5       30.10R
GRAND RAPIDS   CLOUDY    70  66  87 SE10      30.14R
ORR            CLOUDY    64  61  88 SE7       30.10F
COOK           CLEAR     64  63  94 CALM      30.15R
WALKER         CLOUDY    72  68  87 SE8       30.08R
$$
MNZ012-019>021-037-290400-
   Northeast Minnesota

CITY           SKY/WX    TMP DP  RH WIND       PRES   REMARKS
DULUTH         MOCLDY    63  61  93 E7        30.17S
ELY            CLOUDY    66  59  77 S5        30.17R
HIBBING        PTCLDY    64  62  93 SE7       30.15R
EVELETH        PTCLDY    65  62  87 SE5       30.17R
DULUTH HARBOR  CLOUDY    66  63  88 NE10      30.16F
TWO HARBORS    MOCLDY    64  59  82 NE5       30.16F
SILVER BAY     PTCLDY    61  61 100 NE3       30.17S
G MARAIS ARPRT CLEAR     55  54  94 CALM      30.23S
$$
MNZ029>031-032-039>041-046>048-054>057-064-290400-
   West Central Minnesota

CITY           SKY/WX    TMP DP  RH WIND       PRES   REMARKS
FERGUS FALLS   CLOUDY    77  72  83 S14       30.01R
WHEATON        CLOUDY    79  75  89 SE13G18   30.00S
MORRIS         CLOUDY    75  73  94 SE8       30.02F
ALEXANDRIA     CLOUDY    75  69  81 S15       30.07S
ELBOW LAKE     FAIR      75  73  91 SE16      30.01F
WADENA         CLEAR     73  66  78 SE8       30.07R
GLENWOOD       CLOUDY    75  70  83 SE14      30.07F
APPLETON       CLOUDY    79  72  78 S8        30.03S
BENSON         CLOUDY    75  70  83 S10       30.05S
ORTONVILLE     CLOUDY    75  72  88 SE6       30.02F
MADISON        CLEAR     75  72  88 SE8       30.04S
WILLMAR        FAIR      75  72  88 SE6       30.09S
$$
MNZ033>034-036-042>043-049>051-058-059-290400-
   Central Minnesota

CITY           SKY/WX    TMP DP  RH WIND       PRES   REMARKS
ST CLOUD       CLEAR     72  70  93 SE7       30.09S
SAUK CENTRE    FAIR      72  69  88 SE8       30.08S
PAYNESVILLE    CLEAR     74  68  79 SE8       30.09S
AITKIN         CLEAR     73  64  73 SE9       30.11R
PINE RIVER     CLEAR     72  70  94 SE8       30.12R
BRAINERD       CLEAR     72  69  90 SE7       30.10R
STAPLES        CLEAR     73  66  78 SE6       30.08R
LONG PRAIRIE   FAIR      72  68  88 E9        30.08S
LITTLE FALLS   CLEAR     72  66  83 SE7       30.09S
LITCHFIELD     CLEAR     75  72  88 SE6       30.10S
BUFFALO        CLEAR     73  67  83 SE3       30.12R
MAPLE LAKE     CLEAR     73  70  92 CALM      30.11S
HUTCHINSON     CLEAR     72  70  95 SE3       30.12R
$$
MNZ037-044-045-052-053-290400-
   East Central Minnesota

CITY           SKY/WX    TMP DP  RH WIND       PRES   REMARKS
PRINCETON      CLEAR     72  70  94 E3        30.11S
MORA           CLEAR     70  66  88 SE5       30.14S
CAMBRIDGE      CLEAR     73  64  73 SE3       30.10S
RUSH CITY      CLEAR     70  67  89 CALM      30.13R
MOOSE LAKE     CLEAR     68  64  88 E3        30.13S
HINCKLEY       FAIR      70  68  94 E6        30.13S
CLOQUET        PTCLDY    63  61  94 E5        30.16S
MCGREGOR       CLEAR     70  64  83 SE6       30.14R
$$
MNZ071>073-080-081-089-090-097-098-290400-
   Southwest Minnesota

CITY           SKY/WX    TMP DP  RH WIND       PRES   REMARKS
MONTEVIDEO     CLEAR     75  72  88 S8        30.07S
GRANITE FALLS  CLEAR     77  73  86 SE9       30.08S
CANBY          CLEAR     77  71  82 S6        30.06S
MARSHALL       CLEAR     76  72  87 S10       30.07R
REDWOOD FALLS  CLEAR     75  69  81 S12       30.08R
OLIVIA         CLEAR     73  70  88 SE6       30.09R
PIPESTONE      CLEAR     75  72  88 S9        30.11R
WINDOM         PTCLDY    73  70  88 SE8       30.12R
WORTHINGTON    PTCLDY    74  72  93 S9        30.13R
JACKSON          N/A     73  68  83 S8        30.14R
TRACY          CLEAR     76  72  87 S8        30.09S
SLAYTON        CLEAR     73  70  88 S7        30.11S
$$
MNZ065>067-074>077-082>085-091>093-290400-
   South Central Minnesota

CITY           SKY/WX    TMP DP  RH WIND       PRES   REMARKS
MANKATO        CLOUDY    73  68  83 SE8       30.12S
NEW ULM          N/A     73  70  88 SE6       30.11R
ST JAMES       PTCLDY    66  64  94 SE6       30.12R
FAIRMONT       MOCLDY    72  69  90 S6        30.14R
GLENCOE        CLEAR     74  71  90 SE6       30.11R
FARIBAULT      CLOUDY    73  70  88 SE7       30.14S
OWATONNA       PTCLDY    73  70  88 SE6       30.15R
WASECA         CLOUDY    72  70  94 E6        30.16R
ALBERT LEA     PTCLDY    73  72  94 SE8       30.15S
$$
MNZ078>079-086>088-094>096-290400-
   Southeast Minnesota

CITY           SKY/WX    TMP DP  RH WIND       PRES   REMARKS
ROCHESTER      CLEAR     72  70  93 SE10      30.17S
RED WING       CLEAR     73  70  88 SE8       30.14R
DODGE CENTER   PTCLDY    70  66  88 SE6       30.17R
WINONA         PTCLDY    73  70  88 SE3       30.17S
AUSTIN         PTCLDY    72  70  94 SE3       30.16R
PRESTON        CLEAR     72  68  88 SE5       30.19S
$$
ABBREVIATIONS USED IN REMARKS
   TC - TEMPERATURES IN CELSIUS
  WCI - WIND CHILL INDEX
   HX - HEAT INDEX
  VSB - VISIBILITY
$$




USA.gov is the U.S. government's official web portal to all federal, state and local government web resources and services.